World > North America > United States > Virginia > Oakton  

Oakton, VA Hourly Weather Updates

Feedback E-mail the Weather

Quick WX

Oakton, VA Weather Maps

°F °C°F °C
Oakton Weather Map
UTC Time: 2/23/2024, 11:17
Your Time:

Oakton, VA Regional Weather

Expires:202402231200;;556339
ASUS41 KAKQ 231111
RWRAKQ

REGIONAL WEATHER ROUNDUP
NATIONAL WEATHER SERVICE WAKEFIELD VA
600 AM EST FRI FEB 23 2024

Note: "fair" indicates few or no clouds below 12,000 feet with no
significant weather and/or obstructions to visibility. * = Denotes
station may not report precipitation (e.g., rain,snow,etc.),
thunder or fog.


VAZ042-051-052>054-056-231200-
NORTHERN VIRGINIA
  
CITY           SKY/WX    TMP DP  RH WIND       PRES   REMARKS
WASH NATIONAL  CLOUDY    41  38  89 N6        29.52S                  
DULLES         CLOUDY    40  38  93 NW3       29.53R FOG              
FORT BELVOIR   CLOUDY    42  38  87 CALM      29.50S                  
QUANTICO       CLOUDY    43  32  65 NW3       29.53S                  
FREDERICKSBRG* CLOUDY    54  37  52 SW9       29.50S                  
STAFFORD*      CLOUDY    53  33  46 SW5       29.51S                  
WARRENTON      CLOUDY    37  35  91 N3        29.52R                  
CULPEPER*      CLOUDY    38  36  92 CALM      29.53R                  
MANASSAS*      CLOUDY    40  39  97 N6        29.54R                  
LEESBURG*      CLOUDY    41  41 100 N3        29.54S                  
WINCHESTER     CLOUDY    37  36  93 CALM      29.52S FOG              
FRONT ROYAL*   CLOUDY    37  37 100 SE3       29.53R                  
LURAY*         CLOUDY    37  37 100 CALM      29.50S                  
$$


SKY/WX - Weather  TMP - Temperature  DP - Dew Point  RH - Humidity
WIND - Wind Direction/Speed PRES - Barometric Pressure VSB - Visibility
WCI - Wind Chill Index E13G22 Wind - East Wind 13 mph/Gusts of 22 mph

Trending Headlines

Trending Entertainment Headlines

Oakton Radar Loop

Use the map search tool if you want to place a location marker on the radar map...

Oakton Quick Facts

National Two Day Weather Forecast


E-mail the Oakton Weather Forecast

Voice your opinion or tell us about page issues...